Temp
23 22 22 22 24 24 25 26 28 28 27 27 29 28 26 25 27 25 20 21 23 22 21 22 22 21 21 21 21 21 21 21 22 21 21 21 21 21 21 21 21 21 21 21 21 21 21 21 21
24 22 23 23 24 25 26 25 27 27 28 28 29 27 25 24 23 21 21 22 23 22 21 22 22 21 21 21 21 21 21 21 21 21 21 21 21 21 21 21 21 21 21 21 21 21 21 21 21
24 24 24 23 23 25 25 25 27 28 28 29 29 27 25 23 23 22 21 21 22 22 22 21 22 21 21 21 21 21 21 21 21 21 21 21 21 21 21 21 21 21 21 21 21 21 21 21 21
25 24 24 24 25 26 26 25 27 28 28 29 27 25 25 24 23 22 21 21 22 21 22 22 21 21 21 21 21 21 21 21 21 21 21 21 21 21 21 21 21 21 21 21 21 21 21 20 20
26 22 24 25 26 25 27 27 27 26 29 28 28 25 23 23 23 21 21 21 22 22 22 22 21 21 21 21 21 21 21 21 21 21 21 21 21 21 21 21 21 21 21 21 21 21 21 20 20
25 24 25 26 27 29 30 29 27 28 28 27 26 25 23 22 21 21 21 21 22 22 22 22 21 21 21 21 21 21 21 21 21 21 21 21 21 21 21 21 21 21 21 21 21 21 21 21 21
26 24 26 27 28 30 30 28 28 28 28 27 27 23 22 22 21 21 21 22 22 22 22 21 21 21 21 21 21 21 21 21 21 21 21 21 21 21 21 21 21 21 21 21 21 20 20 20 21
24 26 26 26 28 30 31 31 30 29 28 28 26 22 22 22 21 21 21 22 22 22 22 21 21 21 22 21 21 21 21 21 22 21 21 21 21 22 21 21 21 21 21 21 21 21 21 20 20
26 26 27 28 28 31 30 30 30 30 28 29 28 25 24 22 21 21 21 21 21 21 22 22 21 21 22 22 21 21 21 21 21 21 21 21 21 22 22 22 21 21 21 21 21 21 21 21 21
26 27 29 29 30 30 31 30 30 29 28 27 25 24 22 21 21 22 22 22 21 21 21 22 22 21 22 22 22 21 21 22 22 22 21 22 22 22 22 22 21 21 21 21 21 21 21 20 21
27 29 30 31 32 31 31 31 31 28 27 27 24 22 22 22 21 22 22 22 22 21 21 22 22 22 22 22 22 22 22 21 22 21 21 22 22 21 22 22 21 21 21 21 21 21 22 22 21
30 30 32 33 31 31 30 31 30 29 30 28 24 23 22 22 21 21 22 22 22 21 21 21 22 22 22 22 22 22 22 21 21 21 22 22 22 22 21 22 22 21 21 21 21 21 21 21 21
29 31 31 32 31 32 31 31 30 29 28 27 24 24 22 22 22 22 22 21 21 21 21 22 22 22 22 22 22 22 22 22 22 22 22 22 22 22 22 22 22 22 21 21 21 21 21 21 21
32 31 33 32 31 32 31 30 30 28 27 26 24 24 23 23 23 23 22 21 21 20 21 21 22 22 22 21 21 22 22 22 22 22 22 23 22 22 22 22 22 22 22 22 22 22 22 22 22
32 32 32 31 31 32 31 30 29 27 27 26 25 24 24 24 24 23 22 22 22 22 22 21 21 21 22 22 22 22 22 22 23 22 22 22 22 22 22 22 22 22 21 21 21 21 21 22 22
30 30 30 31 31 30 32 28 28 26 27 25 25 25 25 24 24 24 23 22 22 22 22 22 21 22 22 22 22 22 22 23 23 23 23 23 22 22 22 22 22 21 21 21 21 21 21 21 21
27 30 31 31 31 31 30 29 28 26 26 25 25 25 25 24 24 24 24 23 22 22 23 22 22 22 22 22 22 22 23 23 23 23 23 23 23 23 22 22 22 21 21 21 21 22 22 22 21
29 29 30 30 32 30 29 29 28 26 27 26 25 25 24 24 24 24 24 24 24 23 23 24 23 23 22 21 21 22 22 23 24 24 24 24 23 23 22 22 22 21 21 21 21 22 22 22 22
30 30 29 30 31 31 30 29 28 26 26 25 24 23 23 23 24 25 24 25 23 23 23 22 23 22 22 21 21 21 21 22 22 24 24 24 24 23 23 23 22 21 21 21 22 22 22 21 21
30 30 29 30 32 30 30 29 28 26 26 26 25 23 23 23 23 22 23 24 24 23 23 22 23 23 23 22 22 21 21 22 21 23 23 24 23 22 23 23 22 21 21 21 21 21 21 21 21
29 30 29 30 30 31 30 29 28 27 26 26 25 25 24 23 23 22 21 22 24 23 23 23 23 23 23 22 22 21 21 21 22 21 23 23 23 23 23 23 22 21 21 21 22 21 20 20 20
28 30 31 30 30 28 28 27 27 26 26 26 25 24 24 23 23 23 22 21 22 23 24 23 23 23 22 22 22 22 21 20 22 23 21 22 22 22 23 23 23 22 21 21 21 21 21 20 21
29 32 31 30 28 29 28 27 27 25 27 26 25 24 24 23 24 24 22 23 23 24 23 23 23 23 22 22 22 21 21 22 22 21 22 22 21 21 23 23 22 22 22 23 22 21 21 21 21
31 30 26 24 24 27 27 26 26 27 28 28 27 26 26 24 22 22 23 23 23 23 23 23 22 22 22 21 22 22 21 21 21 21 21 21 22 22 22 22 22 22 22 22 22 21 21 21 21
28 25 25 27 25 26 24 25 26 29 28 28 29 27 26 25 21 21 20 20 22 22 22 22 22 21 21 20 21 20 21 22 22 21 21 22 22 22 22 22 22 22 22 22 22 21 21 21 21
27 25 24 27 25 26 24 27 29 28 28 27 27 27 27 26 21 22 21 21 22 22 22 22 21 21 20 20 20 21 22 22 21 22 22 22 22 22 22 22 22 22 21 21 21 21 21 21 21
28 26 26 22 21 24 24 26 28 28 27 27 27 27 27 26 22 22 22 22 22 22 21 22 22 20 20 20 21 22 22 21 21 21 21 22 22 22 22 22 21 22 21 20 21 21 21 21 22
29 27 27 23 26 28 25 25 26 29 31 30 28 27 27 26 23 22 22 22 22 23 22 22 22 21 22 21 22 22 22 21 22 21 22 22 22 22 22 21 22 21 21 20 20 21 21 21 22
27 27 23 23 23 25 25 24 24 27 28 28 29 27 26 26 23 22 22 23 23 22 22 21 21 20 20 20 20 20 21 21 21 21 21 22 22 21 22 22 21 22 21 20 20 21 21 21 21
29 27 24 25 26 21 23 25 27 26 27 27 27 26 25 26 23 22 22 22 21 21 21 20 20 20 20 20 20 20 21 20 20 21 22 22 22 22 22 22 21 21 21 20 20 21 20 20 22
Height
751 754 756 757 776 778 791 781 759 767 768 757 752 760 768 768 772 794 776 779 783 791 797 802 804 807 810 812 815 816 817 817 818 820 823 825 826 826 826 828 829 831 832 833 832 833 834 836 837
752 756 758 760 786 795 793 776 773 763 757 752 753 757 768 776 769 774 779 782 785 791 797 803 806 809 812 815 817 819 821 821 821 822 824 827 828 830 830 829 830 832 833 835 835 835 836 837 838
753 755 761 776 789 797 794 777 767 759 753 753 758 757 765 776 771 775 778 782 787 793 799 804 807 811 814 817 819 821 823 823 823 824 826 827 829 831 833 832 832 833 835 837 838 838 839 839 840
753 757 760 784 791 780 778 776 764 763 756 752 757 771 767 770 774 775 780 784 788 795 800 804 809 813 815 818 820 822 823 825 825 826 827 829 831 833 834 835 835 835 836 838 840 841 841 842 842
752 760 783 788 785 775 760 760 760 767 759 759 757 775 777 775 775 778 783 786 790 796 802 806 810 814 817 819 821 823 824 826 827 827 829 830 832 834 835 836 837 837 838 840 842 844 844 845 844
761 764 787 793 782 761 751 749 760 761 758 759 766 771 780 777 777 781 785 790 793 797 803 807 811 814 819 821 822 823 825 827 829 829 830 832 833 835 836 837 838 840 840 842 843 845 846 847 846
763 777 787 782 778 765 756 748 758 758 759 762 758 780 780 780 781 783 787 791 796 800 804 808 812 815 818 821 823 824 826 828 829 830 832 833 834 836 837 838 839 841 843 844 844 845 846 847 848
758 767 783 781 781 772 748 746 745 753 761 752 756 779 782 777 782 786 790 794 798 802 805 809 812 815 817 820 822 824 826 828 829 831 833 833 836 836 838 838 839 842 844 845 845 846 847 847 848
749 778 785 779 776 762 746 751 744 742 754 753 755 761 763 775 781 786 792 796 799 803 805 808 812 815 817 820 822 824 826 827 829 832 834 835 836 837 839 838 840 842 844 845 846 847 847 848 848
760 777 770 755 751 754 747 748 747 754 758 760 764 763 766 773 780 783 789 794 797 800 802 806 810 813 817 819 821 822 825 827 829 831 833 834 836 837 838 839 840 842 844 845 846 847 847 848 847
758 769 753 747 740 740 747 750 743 756 765 756 764 767 769 774 780 783 788 791 793 797 800 803 807 811 814 817 819 822 824 826 828 831 833 834 835 837 838 839 840 841 844 844 845 847 848 849 848
760 748 744 740 737 742 749 742 749 750 748 741 753 757 766 773 778 781 785 789 792 794 796 800 804 809 812 814 817 820 822 825 827 829 832 833 834 836 837 838 839 840 842 843 844 844 845 846 847
756 747 742 734 735 736 739 746 749 752 745 744 754 760 764 768 772 775 779 785 789 792 794 796 798 803 808 811 813 817 820 822 825 828 830 832 833 834 836 836 837 839 840 842 842 842 843 843 844
740 738 738 736 738 735 744 750 747 753 747 750 755 760 762 763 765 773 777 779 783 788 790 794 796 799 803 808 810 813 816 818 822 826 829 831 831 833 834 834 835 837 838 839 841 841 841 841 842
739 750 742 743 741 743 740 759 757 747 748 753 756 759 762 766 770 769 771 772 773 780 786 790 793 798 800 803 807 810 813 816 819 822 826 829 831 831 832 833 833 835 836 838 838 839 840 839 840
753 754 772 749 744 743 746 776 753 746 748 754 756 756 758 762 763 766 766 767 770 773 778 785 792 794 798 801 806 808 811 814 817 820 824 825 828 830 830 831 831 833 834 835 835 836 837 838 838
773 783 774 765 746 751 755 763 746 745 749 753 755 753 755 759 760 760 762 766 771 775 774 779 785 788 792 797 802 806 809 812 814 818 821 822 825 828 828 829 830 831 832 832 833 834 834 835 836
786 784 776 777 754 756 762 759 748 749 748 751 753 751 754 755 752 756 760 765 768 771 776 775 780 785 790 797 801 804 807 810 811 814 817 819 823 825 825 826 827 829 830 830 831 831 832 832 834
767 774 778 761 750 756 757 757 750 750 750 751 752 752 752 750 748 754 758 760 765 768 770 774 776 781 787 792 797 801 801 805 807 809 813 816 819 822 823 824 824 826 827 828 828 829 831 831 833
766 773 776 757 741 751 752 757 747 747 743 743 745 749 747 747 746 750 752 757 757 760 764 770 771 776 782 787 790 795 798 801 807 809 810 813 815 819 822 821 821 823 824 825 825 826 827 828 830
769 773 772 772 754 748 755 766 757 741 740 740 739 739 741 742 744 745 747 750 753 755 759 762 766 770 776 781 786 792 797 800 801 806 809 811 814 816 817 818 818 819 820 820 821 823 824 825 826
781 756 758 763 770 790 762 801 765 751 749 742 739 740 737 737 740 741 744 748 749 751 755 759 763 764 770 775 780 785 789 792 794 797 801 808 810 814 814 815 815 816 815 815 817 820 821 822 822
768 746 754 759 773 776 777 794 771 757 750 742 736 734 729 730 734 738 739 741 744 747 750 752 758 762 765 769 775 780 783 788 790 796 799 802 806 809 811 811 811 812 812 812 814 816 817 818 820
745 755 770 779 790 805 788 795 781 764 747 733 725 726 721 725 730 733 736 739 741 744 747 749 753 757 761 765 770 773 778 783 788 793 796 798 800 803 806 807 807 808 808 808 808 810 813 814 816
755 780 814 809 815 814 793 795 775 741 734 727 721 719 714 716 725 729 733 735 737 740 744 747 750 753 757 762 766 769 776 780 784 789 792 794 796 799 800 802 802 802 803 803 803 805 807 809 812
763 777 812 816 823 808 793 791 762 732 722 722 718 715 711 711 719 721 725 728 731 734 739 743 747 751 754 759 761 767 772 777 780 785 788 791 793 795 796 797 798 797 798 799 800 802 803 805 809
761 778 762 805 813 813 800 774 741 729 728 723 721 715 710 708 714 717 718 722 726 730 734 738 742 747 752 756 760 763 769 774 778 781 784 788 789 790 791 793 793 794 794 795 796 798 799 802 805
741 745 778 794 810 809 806 793 780 743 729 723 720 715 707 706 710 712 714 717 722 726 731 735 740 744 748 754 758 762 766 771 774 777 780 782 784 785 788 789 790 791 791 792 793 794 797 799 802
754 761 774 781 793 807 815 799 749 738 729 723 714 709 707 704 708 710 711 715 720 725 728 733 739 743 747 752 756 760 764 767 771 775 776 778 780 782 784 785 787 788 788 789 791 793 793 796 800
732 746 760 785 786 801 797 784 724 723 719 717 711 707 705 701 705 709 711 715 720 724 727 732 737 741 745 748 752 756 760 765 767 770 773 775 777 778 781 783 785 786 787 788 790 791 791 794 797
Wind_Speed
13 15 14 1 3 4 3 4 2 2 2 2 5 3 4 3 1 2 14 19 38 34 29 27 26 24 22 20 21 21 21 21 20 19 18 17 16 16 15 12 10 9 8 10 10 10 11 13 13
15 14 2 1 4 3 3 4 2 2 7 5 5 4 4 3 4 10 14 31 37 35 30 27 27 25 23 21 21 21 20 19 19 19 18 17 16 15 15 13 12 10 10 10 11 11 13 13 13
15 4 2 3 3 4 2 2 1 1 2 2 4 5 2 2 9 18 16 35 36 33 29 27 26 23 22 20 21 20 19 18 17 18 17 16 16 14 13 12 12 11 10 10 10 11 12 12 12
8 2 3 4 3 2 3 2 4 3 3 2 6 5 4 2 13 11 30 34 35 31 29 26 25 23 21 20 20 18 19 16 16 16 17 16 15 13 11 11 11 11 10 9 9 11 11 11 11
2 3 3 3 0 4 6 8 3 2 0 4 2 3 5 2 13 28 31 33 36 31 29 26 25 22 20 20 20 19 17 17 16 16 16 15 14 13 10 11 10 9 10 10 9 9 9 9 11
3 2 3 1 2 4 3 4 4 8 2 5 6 5 2 14 26 28 31 30 34 32 28 27 24 22 20 19 19 18 17 16 15 15 15 14 14 13 11 10 10 10 10 10 10 9 8 7 9
4 3 2 1 2 4 2 9 5 4 4 3 9 4 3 8 19 25 30 32 32 31 27 26 25 22 21 18 18 18 17 16 15 14 15 14 13 13 11 10 9 10 9 10 9 9 7 6 7
4 3 3 2 2 4 3 4 9 5 1 7 6 6 5 10 21 23 25 29 30 31 27 25 25 23 22 20 18 17 17 16 15 15 14 14 12 12 13 12 10 9 8 8 8 8 9 7 5
2 3 2 4 3 3 6 3 4 3 10 2 5 5 11 27 25 24 22 21 23 26 28 26 25 25 23 21 19 17 17 17 16 16 14 13 11 9 10 10 9 8 8 8 8 8 8 7 7
3 2 4 5 5 5 9 6 8 4 6 2 7 14 30 29 26 24 23 21 23 24 29 30 27 26 24 23 21 21 19 18 17 18 16 14 11 8 11 10 9 7 7 7 8 9 9 8 7
4 3 2 4 2 7 8 4 3 7 4 6 10 17 19 23 22 21 22 23 26 25 28 32 31 28 27 25 24 22 21 20 20 18 18 15 13 10 11 11 12 10 8 8 10 10 10 10 10
1 7 4 4 6 8 8 5 4 6 4 9 19 23 19 18 15 21 22 23 24 25 28 34 33 30 29 28 26 24 24 23 22 21 19 17 14 12 10 12 13 14 12 10 12 10 11 12 12
3 3 6 9 8 10 7 5 3 0 5 15 17 19 20 18 20 25 24 21 23 24 29 37 36 34 32 30 28 27 27 25 23 22 21 19 16 13 11 9 13 16 15 13 11 14 12 11 14
4 5 4 3 6 7 9 3 3 1 9 14 19 19 18 20 24 22 22 25 27 29 33 37 38 36 34 33 32 30 29 27 24 22 21 20 19 15 14 13 14 17 16 14 13 13 14 15 13
4 4 4 2 2 3 6 1 4 7 10 14 16 16 16 16 22 25 28 30 36 35 35 37 39 37 36 35 33 31 29 28 25 24 22 21 19 18 15 14 14 14 15 14 14 14 14 13 13
4 5 3 3 6 4 5 9 5 10 13 11 13 15 16 17 21 25 28 32 34 35 37 37 35 36 36 35 33 31 30 28 26 23 21 21 20 19 18 16 16 13 14 14 13 13 14 12 12
7 2 3 6 3 1 3 7 6 12 12 11 10 14 13 13 16 24 29 30 29 32 38 38 37 37 38 36 34 32 30 29 25 23 21 21 22 20 20 17 14 13 12 14 14 13 14 15 13
1 3 3 3 2 7 7 16 4 10 11 10 8 10 10 12 18 23 23 30 32 35 35 39 39 37 36 33 32 31 31 28 25 25 19 23 22 23 23 20 17 14 14 13 14 15 13 12 12
2 2 4 5 5 6 10 10 9 9 7 8 9 8 8 11 9 17 22 24 26 31 36 36 38 37 35 35 32 30 32 33 30 28 23 21 19 20 21 22 17 15 16 14 13 15 16 15 11
2 3 6 9 10 7 5 7 6 7 10 12 11 9 11 7 7 8 15 24 26 31 35 34 39 38 38 36 36 27 26 27 31 27 23 21 18 19 16 20 19 18 16 14 14 14 14 14 16
2 3 3 5 7 2 2 4 5 5 5 6 7 9 11 13 12 7 9 18 24 26 34 38 38 38 40 39 37 28 18 20 25 28 25 18 12 14 16 15 15 15 19 17 15 16 16 12 17
6 5 5 5 0 4 2 4 6 4 5 8 7 9 13 13 11 5 7 13 21 25 25 32 36 38 38 41 37 35 27 18 26 34 26 16 10 12 12 12 14 16 16 17 16 15 17 13 11
4 3 3 4 3 1 5 3 7 5 6 8 9 11 14 13 12 11 8 17 22 22 23 25 30 34 36 40 41 36 31 29 21 24 24 17 14 25 21 14 14 15 15 14 14 16 15 15 14
2 2 5 4 4 2 2 3 7 3 6 6 4 11 14 8 10 8 13 16 17 18 19 22 26 30 33 36 40 41 33 28 22 27 24 24 25 26 23 20 15 15 17 16 16 19 17 17 18
5 6 4 4 4 5 1 1 9 5 7 7 8 8 12 7 10 9 9 9 15 20 21 20 23 27 31 33 37 33 33 30 24 28 33 26 25 24 20 21 20 19 19 18 16 19 19 17 19
5 8 6 5 4 4 1 5 6 5 6 9 8 8 7 7 8 10 11 13 16 17 22 23 23 23 25 28 31 32 36 32 25 25 27 22 21 21 19 17 17 15 14 15 14 16 17 17 19
4 4 4 7 3 2 3 7 10 5 6 7 10 9 10 7 9 10 9 15 20 20 22 24 21 20 22 25 26 29 30 23 23 21 20 19 19 19 18 17 16 13 13 15 15 17 15 17 18
6 6 3 3 4 3 5 5 6 7 6 3 7 10 11 3 8 8 8 13 17 20 20 20 20 21 21 24 25 24 21 20 22 22 21 21 19 16 17 17 12 14 12 13 12 17 15 17 16
2 1 5 5 4 6 4 6 8 10 8 9 8 10 9 6 7 7 7 12 14 17 18 19 18 17 17 20 21 22 20 20 22 23 20 18 14 14 14 13 14 14 12 13 14 12 10 16 14
3 6 6 5 4 1 4 7 6 10 8 7 11 7 7 4 7 7 7 12 15 17 19 16 18 18 18 19 19 18 18 20 20 19 17 14 13 11 13 13 13 11 8 11 13 10 7 9 15
Wind_Direction
148 152 150 211 52 72 353 319 200 86 87 313 125 139 163 53 121 195 143 153 152 155 158 156 152 149 144 144 142 141 141 143 146 145 142 141 140 138 134 133 135 132 130 125 130 125 121 118 123
157 147 192 288 82 66 302 286 35 348 117 107 97 99 54 87 80 118 131 153 153 155 155 158 153 148 146 146 145 145 143 143 144 144 143 142 144 133 123 126 125 127 130 132 129 127 122 126 128
157 163 85 84 43 134 195 228 28 344 133 81 118 62 77 70 122 142 154 150 152 154 155 154 154 149 148 150 149 146 146 146 147 147 147 147 145 131 120 127 127 129 131 129 129 130 132 132 131
162 30 15 78 96 221 197 268 69 234 312 125 111 62 70 140 138 149 147 152 151 153 157 156 155 153 152 152 154 150 149 147 148 149 148 151 145 136 126 131 134 133 131 129 130 128 135 140 138
112 69 61 68 237 263 230 217 208 249 182 61 92 100 103 50 133 140 147 153 153 156 157 158 157 156 155 156 158 155 154 154 149 150 154 151 153 146 142 140 140 139 145 138 128 127 134 140 144
54 96 51 67 258 245 249 185 177 235 92 137 91 88 77 134 134 145 152 155 160 158 159 161 160 158 157 160 164 161 160 158 156 154 157 158 159 158 154 149 152 143 142 138 135 133 135 148 151
124 79 165 277 310 297 235 141 190 166 136 114 126 88 100 135 143 148 154 162 163 162 161 164 163 162 161 168 168 169 165 163 161 162 163 166 165 164 162 161 160 159 146 152 155 151 149 155 165
115 98 142 313 31 287 141 138 160 137 114 111 140 147 169 162 147 145 152 161 166 168 166 168 168 167 170 169 173 174 172 169 173 169 168 171 173 179 170 172 168 168 170 168 165 169 166 171 178
129 74 152 174 162 239 161 141 150 95 136 175 156 143 138 140 142 140 146 155 163 173 176 175 175 175 176 174 176 178 181 177 177 175 175 170 178 188 182 183 177 181 186 189 186 180 190 193 198
103 86 219 201 200 182 180 152 165 122 156 75 73 97 129 141 148 155 165 170 174 176 182 184 182 180 180 181 179 186 186 185 183 183 180 182 180 183 183 188 188 196 202 211 206 198 199 202 209
166 197 229 243 211 138 150 174 157 117 226 190 161 143 143 150 159 165 172 181 182 182 183 188 186 185 186 185 185 190 191 191 190 191 192 188 186 183 188 198 204 210 222 228 225 208 206 209 212
312 228 247 199 205 154 167 156 195 164 263 149 156 154 151 160 170 173 176 181 182 183 184 188 190 191 191 190 191 197 193 198 197 197 201 196 196 200 203 219 221 223 227 239 238 226 216 226 225
208 224 235 238 181 171 145 193 163 181 98 126 143 156 164 169 179 184 180 177 181 186 189 192 192 195 196 197 196 198 200 203 204 204 207 209 209 217 219 222 227 229 232 240 246 232 233 247 231
251 241 215 255 163 171 157 142 133 160 139 146 157 170 175 181 183 180 179 179 189 191 195 198 199 199 199 202 201 201 204 207 208 210 213 220 219 225 231 237 227 227 229 231 240 237 245 245 244
251 308 122 146 164 136 101 313 238 164 157 167 172 174 184 186 187 193 188 187 190 199 198 204 202 205 204 206 207 207 210 210 211 213 216 222 224 227 232 228 228 232 230 238 237 239 245 234 230
30 56 107 227 163 209 129 252 220 182 167 183 180 183 187 190 198 201 198 197 197 194 197 205 207 207 211 211 213 213 213 212 214 219 222 227 233 234 236 238 238 233 236 231 236 232 234 224 219
14 100 41 360 247 54 191 262 222 177 184 194 188 194 190 190 207 207 205 201 201 201 199 203 208 210 213 214 215 216 214 214 215 219 226 234 237 240 240 238 235 235 238 235 234 227 227 235 223
350 356 320 218 219 185 227 262 233 189 190 198 202 203 195 198 210 204 203 207 208 206 209 206 208 211 214 213 215 217 218 216 217 218 215 236 232 241 240 241 234 235 240 237 236 231 236 228 215
159 206 278 265 221 226 219 257 242 189 207 194 203 206 213 215 220 202 201 207 204 206 207 205 204 208 209 208 210 217 218 218 221 219 221 230 227 234 237 244 237 244 240 251 242 229 231 213 201
187 307 287 288 336 173 163 229 269 177 221 212 202 202 219 232 238 191 198 198 207 205 205 206 209 208 211 210 212 213 215 219 233 228 230 236 224 239 247 250 245 237 241 243 235 231 224 217 203
252 219 250 243 305 38 72 301 282 263 215 200 218 209 216 213 223 220 214 207 199 204 207 208 211 211 212 213 213 213 224 218 224 232 219 223 223 244 258 265 264 251 241 241 237 234 227 202 199
273 200 248 278 181 240 6 261 287 309 284 227 222 205 224 218 222 222 206 203 202 212 211 215 214 214 213 214 210 209 207 198 210 213 202 196 233 261 249 256 271 273 269 249 234 234 233 218 191
205 198 265 345 130 194 2 74 271 360 305 248 220 223 232 216 212 219 201 210 217 216 209 210 216 215 214 213 212 207 208 216 208 188 190 216 255 253 252 259 267 266 263 254 234 228 225 231 217
129 79 41 56 75 46 327 128 289 244 227 288 224 219 234 198 190 194 190 192 196 207 209 205 208 214 218 214 212 215 207 208 200 206 207 218 247 248 246 251 262 260 254 244 239 227 235 238 221
96 63 340 360 16 219 306 62 238 264 250 233 271 247 240 197 166 176 173 176 183 193 201 203 206 210 215 209 212 205 210 212 209 216 219 230 245 243 248 249 255 262 252 244 233 224 230 228 214
171 150 157 193 192 247 275 237 248 228 242 251 274 261 263 236 164 180 181 179 186 189 195 200 205 211 215 211 209 213 216 220 227 230 222 234 237 255 259 243 253 258 243 241 230 227 227 215 213
186 168 178 105 11 67 258 295 307 257 249 266 266 279 258 232 173 182 185 183 193 189 193 200 206 213 216 213 213 213 217 225 224 221 219 235 254 255 246 245 245 240 251 234 228 221 217 206 209
159 155 87 9 136 213 295 291 239 297 255 244 260 256 271 177 174 180 180 186 198 197 203 205 206 210 216 216 215 217 221 225 225 227 235 245 250 241 242 248 229 237 245 234 224 219 209 204 206
92 181 54 121 130 171 209 258 218 239 240 263 252 245 257 260 187 172 182 180 187 185 194 200 201 201 208 214 218 221 220 222 226 233 232 231 236 243 237 232 239 227 237 225 216 208 198 199 204
146 186 142 129 230 150 170 256 230 231 239 247 270 264 280 245 177 159 165 150 155 169 175 181 187 197 201 196 200 211 212 216 216 219 216 224 244 235 234 232 215 207 206 205 202 191 172 210 211